GW3985 Weather Reports


time (UTC)temp
F
wind
direction
speed
knots
gust
knots
rain 1hr
in
rain 24hr
in
rain mn
in
humidity
%
barometer
mb
20260901141056 61 0.0 0.0 0.00 0.01 0.00 82 1026.0
20260901140016 60 146 0.0 0.9 0.00 0.01 0.00 81 1025.9
20260901135037 60 0.0 0.0 0.00 0.01 0.00 82 1025.9
20260901134017 60 0.0 0.0 0.00 0.01 0.00 82 1025.9
20260901133015 60 146 0.0 0.9 0.00 0.01 0.00 82 1025.7
20260901132016 59 146 0.0 0.9 0.00 0.01 0.00 83 1025.6
20260901131016 59 174 0.0 0.9 0.00 0.01 0.00 85 1025.5
20260901130016 58 0.0 0.0 0.00 0.01 0.00 85 1025.3
20260901125016 58 0.0 0.0 0.00 0.01 0.00 84 1025.1
20260901124017 58 0.0 0.0 0.00 0.01 0.00 84 1025.0
20260901123014 58 0.0 0.0 0.00 0.01 0.00 84 1025.0
20260901122015 58 0.0 0.0 0.00 0.01 0.00 83 1024.9
20260901121015 59 0.0 0.0 0.00 0.01 0.00 83 1024.8
20260901120016 59 0.0 0.0 0.00 0.01 0.00 82 1024.8
20260901115016 60 0.0 0.0 0.00 0.01 0.00 80 1024.8
20260901114016 60 290 0.0 1.7 0.00 0.01 0.00 79 1024.7
20260901113017 60 151 0.0 3.5 0.00 0.01 0.00 78 1024.5
20260901112015 60 143 0.9 3.5 0.00 0.01 0.00 79 1024.5
20260901111015 60 137 0.9 1.7 0.00 0.01 0.00 80 1024.7
20260901110035 59 143 0.0 1.7 0.00 0.01 0.00 81 1024.9
20260901105036 59 135 0.0 0.9 0.00 0.01 0.00 81 1025.1
20260901104016 60 132 0.0 1.7 0.00 0.01 0.00 80 1025.2
20260901103017 60 147 0.0 0.9 0.00 0.01 0.00 80 1025.3
20260901102037 59 147 0.0 0.9 0.00 0.01 0.00 81 1025.5
20260901101035 59 147 0.0 0.9 0.00 0.01 0.00 81 1025.6
20260901100015 59 140 0.9 2.6 0.00 0.01 0.00 81 1025.6
20260901095016 59 144 0.0 0.9 0.00 0.01 0.00 81 1025.7
20260901094016 59 145 0.0 1.7 0.00 0.01 0.00 81 1026.0
20260901093016 59 139 0.0 1.7 0.00 0.01 0.00 81 1026.0
20260901092017 60 139 0.0 0.9 0.00 0.01 0.00 81 1026.1
20260901091017 60 139 0.0 1.7 0.00 0.01 0.00 81 1026.1
20260901090035 60 139 0.0 1.7 0.00 0.01 0.00 81 1026.1
20260901085015 60 139 0.0 0.9 0.00 0.01 0.00 81 1026.1
20260901084016 60 140 0.0 0.9 0.00 0.01 0.00 82 1026.3
20260901083036 60 143 0.9 2.6 0.00 0.01 0.00 82 1026.4
20260901082017 60 145 0.0 0.9 0.00 0.01 0.00 83 1026.4
20260901081017 60 145 0.0 0.9 0.00 0.01 0.00 83 1026.6
20260901080014 60 145 0.0 0.9 0.00 0.01 0.00 82 1026.7
20260901075015 60 0.0 0.0 0.00 0.01 0.00 82 1026.9
20260901074015 60 282 0.0 0.9 0.00 0.01 0.00 83 1026.9
20260901073036 60 0.0 0.0 0.00 0.01 0.00 83 1026.8
20260901072016 60 0.0 0.0 0.00 0.01 0.00 83 1027.0
20260901071017 60 0.0 0.0 0.00 0.01 0.00 83 1027.0
20260901070017 60 0.0 0.0 0.00 0.01 0.00 83 1026.9
20260901065015 60 0.0 0.0 0.00 0.01 0.00 83 1026.8
20260901064015 60 0.0 0.0 0.00 0.01 0.00 82 1026.7
20260901063015 60 0.0 0.0 0.00 0.01 0.00 82 1026.8
20260901062016 60 0.0 0.0 0.00 0.01 0.00 81 1026.8
20260901061016 61 0.0 0.0 0.00 0.01 0.00 81 1026.6
20260901060017 61 0.0 0.0 0.00 0.01 0.00 80 1026.7
20260901055017 61 141 0.0 0.9 0.00 0.01 0.01 80 1027.2
20260901054035 61 144 0.9 1.7 0.00 0.01 0.01 80 1027.4
20260901053015 61 139 0.9 2.6 0.00 0.01 0.01 81 1027.3
20260901052016 61 142 0.0 1.7 0.00 0.01 0.01 81 1027.3
20260901050036 61 132 0.0 0.9 0.00 0.01 0.01 81 1026.9
20260901045017 62 0.0 0.0 0.00 0.01 0.01 82 1027.0
20260901044017 62 132 0.0 0.9 0.00 0.01 0.01 82 1026.7
20260901043055 62 0.0 0.0 0.00 0.01 0.01 82 1026.5
20260901042015 62 0.0 0.0 0.00 0.01 0.01 81 1026.5
20260901041016 62 0.0 0.0 0.00 0.01 0.01 81 1026.5
20260901040016 62 0.0 0.0 0.00 0.01 0.01 79 1026.7
20260901035016 63 0.0 0.0 0.00 0.01 0.01 78 1026.9
20260901034017 63 255 0.0 0.9 0.01 0.01 0.01 78 1027.1
20260901033057 62 220 0.0 1.7 0.01 0.01 0.01 81 1027.1
20260901032035 62 0.0 0.0 0.01 0.01 0.01 82 1027.5
20260901031035 63 242 0.0 0.9 0.01 0.01 0.01 81 1027.5
20260901030016 63 242 0.0 0.9 0.01 0.01 0.01 81 1027.6
20260901025016 63 166 0.0 1.7 0.01 0.01 0.01 80 1027.6
20260901024016 65 127 0.9 3.5 0.00 0.00 0.00 77 1027.2
20260901023017 66 168 0.9 6.1 0.00 0.00 0.00 74 1027.4
20260901022015 71 173 2.6 8.7 0.00 0.00 0.00 62 1027.0
20260901021015 74 263 1.7 9.6 0.00 0.00 0.00 46 1025.9
20260901020036 75 129 0.0 1.7 0.00 0.00 0.00 45 1025.0
20260901015056 75 143 0.9 3.5 0.00 0.00 0.00 44 1024.6
20260901014016 76 143 0.9 4.3 0.00 0.00 0.00 44 1024.4
20260901013016 76 132 0.9 3.5 0.00 0.00 0.00 43 1024.3
20260901012017 76 101 0.0 1.7 0.00 0.00 0.00 45 1024.1
20260901011015 77 93 0.9 1.7 0.00 0.00 0.00 47 1024.0
20260901010016 77 91 0.0 2.6 0.00 0.00 0.00 46 1023.9
20260901005015 77 98 0.0 0.9 0.00 0.00 0.00 44 1024.1
20260901004036 78 90 0.0 0.9 0.00 0.00 0.00 44 1024.3
20260901003016 79 245 0.0 0.9 0.00 0.00 0.00 43 1024.4
20260901002016 79 89 0.9 1.7 0.00 0.00 0.00 42 1024.5
20260901001017 80 99 0.9 1.7 0.00 0.00 0.00 39 1024.5
20260901000015 82 91 0.9 2.6 0.00 0.00 0.00 38 1024.5
20260831235015 82 97 0.9 2.6 0.00 0.00 0.00 38 1024.6
20260831234015 82 100 0.9 1.7 0.00 0.00 0.00 38 1024.6
20260831233016 83 85 0.9 3.5 0.00 0.00 0.00 37 1024.6
20260831232016 83 89 0.9 2.6 0.00 0.00 0.00 37 1024.6
20260831231017 82 133 0.9 3.5 0.00 0.00 0.00 35 1024.6
20260831230017 82 115 0.9 2.6 0.00 0.00 0.00 35 1024.6
20260831225035 82 144 1.7 4.3 0.00 0.00 0.00 34 1024.9
20260831224015 83 133 0.9 3.5 0.00 0.00 0.00 33 1024.9
20260831223016 85 139 0.9 3.5 0.00 0.00 0.00 33 1025.1
20260831222016 86 136 0.9 5.2 0.00 0.00 0.00 32 1025.2
20260831221016 85 88 0.9 1.7 0.00 0.01 0.00 33 1025.3
20260831220017 86 146 0.9 3.5 0.00 0.02 0.00 34 1025.2
20260831215014 86 48 0.9 2.6 0.00 0.02 0.00 34 1025.3
20260831214015 86 96 0.9 1.7 0.00 0.02 0.00 35 1025.5
20260831213015 86 95 0.9 2.6 0.00 0.02 0.00 35 1025.6
20260831212016 85 89 0.9 2.6 0.00 0.02 0.00 35 1025.7
20260831211016 83 111 0.9 1.7 0.00 0.02 0.00 36 1025.8
20260831210036 84 99 0.9 2.6 0.00 0.02 0.00 34 1026.0
20260831205017 85 114 0.0 0.9 0.00 0.02 0.00 36 1026.0
20260831204015 84 120 0.9 2.6 0.00 0.02 0.00 36 1026.2
20260831203015 83 92 0.0 1.7 0.00 0.02 0.00 38 1026.3
20260831202016 83 283 0.0 1.7 0.00 0.02 0.00 38 1026.5
20260831201016 82 0.0 0.0 0.00 0.02 0.00 38 1026.7
20260831200016 82 0.0 0.0 0.00 0.02 0.00 40 1026.8
20260831195016 81 0.0 0.0 0.00 0.02 0.00 39 1026.8
20260831194017 81 219 0.0 0.9 0.00 0.02 0.00 39 1026.9
20260831193015 82 242 0.0 1.7 0.00 0.02 0.00 38 1027.0
20260831192015 82 27 0.0 0.9 0.00 0.02 0.00 39 1027.1
20260831191015 82 289 0.0 0.9 0.00 0.02 0.00 39 1027.2
20260831190036 82 282 0.0 0.9 0.00 0.02 0.00 38 1027.3
20260831185016 82 256 0.0 1.7 0.00 0.02 0.00 37 1027.4
20260831184017 81 250 0.0 0.9 0.00 0.02 0.00 38 1027.5
20260831183037 80 244 0.0 0.9 0.00 0.02 0.00 39 1027.6
20260831182015 79 0.0 0.0 0.00 0.02 0.00 40 1027.7
20260831181015 80 267 0.0 0.9 0.00 0.02 0.00 40 1027.7
20260831180015 79 266 0.0 0.9 0.00 0.02 0.00 41 1027.8
20260831175016 79 270 0.0 0.9 0.00 0.02 0.00 41 1027.9
20260831174016 78 251 0.0 0.9 0.00 0.02 0.00 42 1027.8
20260831173017 78 0.0 0.0 0.00 0.02 0.00 42 1027.9
20260831172017 78 250 0.0 0.9 0.00 0.02 0.00 41 1028.0
20260831171035 77 0.0 0.0 0.00 0.02 0.00 41 1028.0
20260831170015 77 267 0.0 0.9 0.00 0.02 0.00 43 1028.0
20260831165016 77 268 0.0 0.9 0.00 0.02 0.00 42 1028.0
20260831164036 76 12 0.0 0.9 0.00 0.02 0.00 43 1027.9
20260831163056 75 12 0.0 0.9 0.00 0.02 0.00 45 1027.9
20260831162038 74 12 0.0 0.9 0.00 0.02 0.00 47 1027.8
20260831161035 74 12 0.0 1.7 0.00 0.02 0.00 50 1027.7
20260831160015 73 41 0.0 1.7 0.00 0.02 0.00 51 1027.8
20260831155015 73 0.0 0.0 0.00 0.02 0.00 50 1027.7
20260831154016 72 141 0.0 0.9 0.00 0.02 0.00 52 1027.7
20260831153016 71 141 0.0 0.9 0.00 0.02 0.00 52 1027.6
20260831152016 71 0.0 0.0 0.00 0.02 0.00 52 1027.6
20260831151017 70 141 0.0 0.9 0.00 0.02 0.00 53 1027.6
20260831150015 70 141 0.0 0.9 0.00 0.02 0.00 54 1027.5
20260831145015 69 143 0.0 1.7 0.00 0.02 0.00 55 1027.4
20260831144015 68 143 0.0 0.9 0.00 0.02 0.00 56 1027.3
20260831143016 68 142 0.0 0.9 0.00 0.02 0.00 57 1027.3
20260831142016 67 142 0.9 1.7 0.00 0.02 0.00 57 1027.3